Location: Kanab
(37.0481°N, 112.5285°W)
Time: 13:29:37
(UTC-06:00)

ISS - Visible Passes

Search period start: 19 October 2021 00:00
Search period end: 29 October 2021 00:00
Orbit: 417 x 423 km, 51.6° (Epoch: 19 October)

Date Brightness Start Highest point End Pass type
(mag) Time Alt. Az. Time Alt. Az. Time Alt. Az.
20 Oct -1.6 06:41:30 10° SSW 06:44:24 27° SE 06:47:19 10° ENE visible
21 Oct -0.9 05:55:15 10° SSE 05:57:20 16° SE 05:59:26 10° E visible
22 Oct -3.8 06:43:52 14° SW 06:46:38 83° NW 06:50:00 10° NE visible
23 Oct -3.1 05:59:23 52° SE 05:59:26 52° SE 06:02:44 10° ENE visible
24 Oct -0.4 05:14:41 13° ENE 05:14:41 13° ENE 05:15:14 10° ENE visible
24 Oct -2.6 06:47:42 21° WNW 06:49:05 28° NNW 06:52:03 10° NNE visible
25 Oct -2.4 06:02:50 32° NNE 06:02:50 32° NNE 06:05:00 10° NE visible
26 Oct -1.6 06:50:50 13° NW 06:51:44 14° NNW 06:53:37 10° NNE visible
27 Oct -1.4 06:05:43 15° N 06:05:43 15° N 06:06:46 10° NNE visible
